Year,Month,Day,Hour,Minute,Value (Times are PST for windspeed in km/hr)
2022,04,04,00,00,12.00
2022,04,04,00,01,14.80
2022,04,04,00,02,14.20
2022,04,04,00,03,6.90
2022,04,04,00,04,11.30
2022,04,04,00,05,10.20
2022,04,04,00,06,16.90
2022,04,04,00,07,15.20
2022,04,04,00,08,23.50
2022,04,04,00,09,15.60
2022,04,04,00,10,16.90
2022,04,04,00,11,13.20
2022,04,04,00,12,13.40
2022,04,04,00,13,18.40
2022,04,04,00,14,18.60
2022,04,04,00,15,13.40
2022,04,04,00,16,16.50
2022,04,04,00,17,19.20
2022,04,04,00,18,12.90
2022,04,04,00,19,15.80
2022,04,04,00,20,13.10
2022,04,04,00,21,15.00
2022,04,04,00,22,15.40
2022,04,04,00,23,15.10
2022,04,04,00,24,18.10
2022,04,04,00,25,21.10
2022,04,04,00,26,25.10
2022,04,04,00,27,13.50
2022,04,04,00,28,15.40
2022,04,04,00,29,16.20
2022,04,04,00,30,17.90
2022,04,04,00,31,19.10
2022,04,04,00,32,23.90
2022,04,04,00,33,19.80
2022,04,04,00,34,18.30
2022,04,04,00,35,20.90
2022,04,04,00,36,16.90
2022,04,04,00,37,18.60
2022,04,04,00,38,13.00
2022,04,04,00,39,9.30
2022,04,04,00,40,16.70
2022,04,04,00,41,21.30
2022,04,04,00,42,16.70
2022,04,04,00,43,22.30
2022,04,04,00,44,18.90
2022,04,04,00,45,18.10
2022,04,04,00,46,17.90
2022,04,04,00,47,21.90
2022,04,04,00,48,19.90
2022,04,04,00,49,15.70
2022,04,04,00,50,21.60
2022,04,04,00,51,20.80
2022,04,04,00,52,15.40
2022,04,04,00,53,15.90
2022,04,04,00,54,18.90
2022,04,04,00,55,16.90
2022,04,04,00,56,10.90
2022,04,04,00,57,16.20
2022,04,04,00,58,22.90
2022,04,04,00,59,19.30
2022,04,04,01,00,11.70
2022,04,04,01,01,16.50
2022,04,04,01,02,10.50
2022,04,04,01,03,23.30
2022,04,04,01,04,22.60
2022,04,04,01,05,20.50
2022,04,04,01,06,19.30
2022,04,04,01,07,16.20
2022,04,04,01,08,18.30
2022,04,04,01,09,20.90
2022,04,04,01,10,20.30
2022,04,04,01,11,13.40
2022,04,04,01,12,17.20
2022,04,04,01,13,19.80
2022,04,04,01,14,19.30
2022,04,04,01,15,14.10
2022,04,04,01,16,18.10
2022,04,04,01,17,15.30
2022,04,04,01,18,19.50
2022,04,04,01,19,12.30
2022,04,04,01,20,15.70
2022,04,04,01,21,18.60
2022,04,04,01,22,18.90
2022,04,04,01,23,9.60
2022,04,04,01,24,12.70
2022,04,04,01,25,16.30
2022,04,04,01,26,15.00
2022,04,04,01,27,10.70
2022,04,04,01,28,17.90
2022,04,04,01,29,18.60
2022,04,04,01,30,16.90
2022,04,04,01,31,19.60
2022,04,04,01,32,19.60
2022,04,04,01,33,20.90
2022,04,04,01,34,19.40
2022,04,04,01,35,21.90
2022,04,04,01,36,17.90
2022,04,04,01,37,16.80
2022,04,04,01,38,16.60
2022,04,04,01,39,19.00
2022,04,04,01,40,14.00
2022,04,04,01,41,20.80
2022,04,04,01,42,21.00
2022,04,04,01,43,15.80
2022,04,04,01,44,12.20
2022,04,04,01,45,7.80
2022,04,04,01,46,14.70
2022,04,04,01,47,20.70
2022,04,04,01,48,21.80
2022,04,04,01,49,16.40
2022,04,04,01,50,21.40
2022,04,04,01,51,20.80
2022,04,04,01,52,12.60
2022,04,04,01,53,19.50
2022,04,04,01,54,12.00
2022,04,04,01,55,13.20
2022,04,04,01,56,7.40
2022,04,04,01,57,17.40
2022,04,04,01,58,15.90
2022,04,04,01,59,11.90
2022,04,04,02,00,7.30
2022,04,04,02,01,9.30
2022,04,04,02,02,8.40
2022,04,04,02,03,18.70
2022,04,04,02,04,15.00
2022,04,04,02,05,13.90
2022,04,04,02,06,10.10
2022,04,04,02,07,15.00
2022,04,04,02,08,12.60
2022,04,04,02,09,12.50
2022,04,04,02,10,19.50
2022,04,04,02,11,16.90
2022,04,04,02,12,14.30
2022,04,04,02,13,15.20
2022,04,04,02,14,17.30
2022,04,04,02,15,12.70
2022,04,04,02,16,19.50
2022,04,04,02,17,14.40
2022,04,04,02,18,8.10
2022,04,04,02,19,12.10
2022,04,04,02,20,13.20
2022,04,04,02,21,9.10
2022,04,04,02,22,8.50
2022,04,04,02,23,18.50
2022,04,04,02,24,17.10
2022,04,04,02,25,10.70
2022,04,04,02,26,10.30
2022,04,04,02,27,13.40
2022,04,04,02,28,11.60
2022,04,04,02,29,4.90
2022,04,04,02,30,13.40
2022,04,04,02,31,14.50
2022,04,04,02,32,7.10
2022,04,04,02,33,7.70
2022,04,04,02,34,14.30
2022,04,04,02,35,17.10
2022,04,04,02,36,15.90
2022,04,04,02,37,10.70
2022,04,04,02,38,12.30
2022,04,04,02,39,8.00
2022,04,04,02,40,7.00
2022,04,04,02,41,12.00
2022,04,04,02,42,16.20
2022,04,04,02,43,10.70
2022,04,04,02,44,13.00
2022,04,04,02,45,13.80
2022,04,04,02,46,13.70
2022,04,04,02,47,9.70
2022,04,04,02,48,10.10
2022,04,04,02,49,13.60
2022,04,04,02,50,12.40
2022,04,04,02,51,12.60
2022,04,04,02,52,12.10
2022,04,04,02,53,10.60
2022,04,04,02,54,4.90
2022,04,04,02,55,9.00
2022,04,04,02,56,11.10
2022,04,04,02,57,6.40
2022,04,04,02,58,11.10
2022,04,04,02,59,16.60
2022,04,04,03,00,14.40
2022,04,04,03,01,18.90
2022,04,04,03,02,13.40
2022,04,04,03,03,11.00
2022,04,04,03,04,11.10
2022,04,04,03,05,13.60
2022,04,04,03,06,8.70
2022,04,04,03,07,9.40
2022,04,04,03,08,8.90
2022,04,04,03,09,15.90
2022,04,04,03,10,13.70
2022,04,04,03,11,10.80
2022,04,04,03,12,12.00
2022,04,04,03,13,5.20
2022,04,04,03,14,11.20
2022,04,04,03,15,7.60
2022,04,04,03,16,10.10
2022,04,04,03,17,5.70
2022,04,04,03,18,7.90
2022,04,04,03,19,6.10
2022,04,04,03,20,10.20
2022,04,04,03,21,8.60
2022,04,04,03,22,10.10
2022,04,04,03,23,7.20
2022,04,04,03,24,6.80
2022,04,04,03,25,5.30
2022,04,04,03,26,7.60
2022,04,04,03,27,5.70
2022,04,04,03,28,10.10
2022,04,04,03,29,6.50
2022,04,04,03,30,2.80
2022,04,04,03,31,10.40
2022,04,04,03,32,7.00
2022,04,04,03,33,7.00
2022,04,04,03,34,4.10
2022,04,04,03,35,6.70
2022,04,04,03,36,5.00
2022,04,04,03,37,8.50
2022,04,04,03,38,8.40
2022,04,04,03,39,9.00
2022,04,04,03,40,7.20
2022,04,04,03,41,13.40
2022,04,04,03,42,14.60
2022,04,04,03,43,15.50
2022,04,04,03,44,6.50
2022,04,04,03,45,9.90
2022,04,04,03,46,9.30
2022,04,04,03,47,10.80
2022,04,04,03,48,13.40
2022,04,04,03,49,23.00
2022,04,04,03,50,20.10
2022,04,04,03,51,13.30
2022,04,04,03,52,9.20
2022,04,04,03,53,11.10
2022,04,04,03,54,8.50
2022,04,04,03,55,8.50
2022,04,04,03,56,12.40
2022,04,04,03,57,14.20
2022,04,04,03,58,10.80
2022,04,04,03,59,13.60
2022,04,04,04,00,18.80
2022,04,04,04,01,18.40
2022,04,04,04,02,15.60
2022,04,04,04,03,17.60
2022,04,04,04,04,18.40
2022,04,04,04,05,15.70
2022,04,04,04,06,18.40
2022,04,04,04,07,23.80
2022,04,04,04,08,18.90
2022,04,04,04,09,25.00
2022,04,04,04,10,23.00
2022,04,04,04,11,18.80
2022,04,04,04,12,24.90
2022,04,04,04,13,18.60
2022,04,04,04,14,16.50
2022,04,04,04,15,16.50
2022,04,04,04,16,23.60
2022,04,04,04,17,19.90
2022,04,04,04,18,12.90
2022,04,04,04,19,20.70
2022,04,04,04,20,17.80
2022,04,04,04,21,19.30
2022,04,04,04,22,18.00
2022,04,04,04,23,22.70
2022,04,04,04,24,19.40
2022,04,04,04,25,22.10
2022,04,04,04,26,15.00
2022,04,04,04,27,15.80
2022,04,04,04,28,19.50
2022,04,04,04,29,20.30
2022,04,04,04,30,25.30
2022,04,04,04,31,21.20
2022,04,04,04,32,26.30
2022,04,04,04,33,25.80
2022,04,04,04,34,16.80
2022,04,04,04,35,18.80
2022,04,04,04,36,17.60
2022,04,04,04,37,23.10
2022,04,04,04,38,24.50
2022,04,04,04,39,27.60
2022,04,04,04,40,21.20
2022,04,04,04,41,24.00
2022,04,04,04,42,21.80
2022,04,04,04,43,20.60
2022,04,04,04,44,19.00
2022,04,04,04,45,15.70
2022,04,04,04,46,22.10
2022,04,04,04,47,19.60
2022,04,04,04,48,20.80
2022,04,04,04,49,23.70
2022,04,04,04,50,17.60
2022,04,04,04,51,22.40
2022,04,04,04,52,16.50
2022,04,04,04,53,18.50
2022,04,04,04,54,20.30
2022,04,04,04,55,15.30
2022,04,04,04,56,19.00
2022,04,04,04,57,17.30
2022,04,04,04,58,15.90
2022,04,04,04,59,17.90
2022,04,04,05,00,23.50
2022,04,04,05,01,24.80
2022,04,04,05,02,15.90
2022,04,04,05,03,18.60
2022,04,04,05,04,19.40
2022,04,04,05,05,22.30
2022,04,04,05,06,14.20
2022,04,04,05,07,17.60
2022,04,04,05,08,15.90
2022,04,04,05,09,23.70
2022,04,04,05,10,21.20
2022,04,04,05,11,18.00
2022,04,04,05,12,28.50
2022,04,04,05,13,26.10
2022,04,04,05,14,29.20
2022,04,04,05,15,23.50
2022,04,04,05,16,32.50
2022,04,04,05,17,30.40
2022,04,04,05,18,27.00
2022,04,04,05,19,27.70
2022,04,04,05,20,22.20
2022,04,04,05,21,34.90
2022,04,04,05,22,32.30
2022,04,04,05,23,32.60
2022,04,04,05,24,30.40
2022,04,04,05,25,26.90
2022,04,04,05,26,25.30
2022,04,04,05,27,19.80
2022,04,04,05,28,23.00
2022,04,04,05,29,24.60
2022,04,04,05,30,18.30
2022,04,04,05,31,20.00
2022,04,04,05,32,27.00
2022,04,04,05,33,33.20
2022,04,04,05,34,23.50
2022,04,04,05,35,21.50
2022,04,04,05,36,26.70
2022,04,04,05,37,26.70
2022,04,04,05,38,28.70
2022,04,04,05,39,18.90
2022,04,04,05,40,29.40
2022,04,04,05,41,26.50
2022,04,04,05,42,26.80
2022,04,04,05,43,20.60
2022,04,04,05,44,17.80
2022,04,04,05,45,26.10
2022,04,04,05,46,23.00
2022,04,04,05,47,27.40
2022,04,04,05,48,23.30
2022,04,04,05,49,28.30
2022,04,04,05,50,23.40
2022,04,04,05,51,30.30
2022,04,04,05,52,29.30
2022,04,04,05,53,29.10
2022,04,04,05,54,22.70
2022,04,04,05,55,17.10
2022,04,04,05,56,19.60
2022,04,04,05,57,19.40
2022,04,04,05,58,24.60
2022,04,04,05,59,21.60
2022,04,04,06,00,21.20
2022,04,04,06,01,21.80
2022,04,04,06,02,19.70
2022,04,04,06,03,19.60
2022,04,04,06,04,20.70
2022,04,04,06,05,16.30
2022,04,04,06,06,21.70
2022,04,04,06,07,20.40
2022,04,04,06,08,18.70
2022,04,04,06,09,28.70
2022,04,04,06,10,25.00
2022,04,04,06,11,25.80
2022,04,04,06,12,30.10
2022,04,04,06,13,23.40
2022,04,04,06,14,22.20
2022,04,04,06,15,24.80
2022,04,04,06,16,24.80
2022,04,04,06,17,17.50
2022,04,04,06,18,18.10
2022,04,04,06,19,20.80
2022,04,04,06,20,18.30
2022,04,04,06,21,18.80
2022,04,04,06,22,25.30
2022,04,04,06,23,21.10
2022,04,04,06,24,21.30
2022,04,04,06,25,19.20
2022,04,04,06,26,18.30
2022,04,04,06,27,17.10
2022,04,04,06,28,22.40
2022,04,04,06,29,25.20
2022,04,04,06,30,33.20
2022,04,04,06,31,24.50
2022,04,04,06,32,32.70
2022,04,04,06,33,33.10
2022,04,04,06,34,18.60
2022,04,04,06,35,20.10
2022,04,04,06,36,26.10
2022,04,04,06,37,26.10
2022,04,04,06,38,26.10
2022,04,04,06,39,29.20
2022,04,04,06,40,35.00
2022,04,04,06,41,28.40
2022,04,04,06,42,27.10
2022,04,04,06,43,22.60
2022,04,04,06,44,24.90
2022,04,04,06,45,24.00
2022,04,04,06,46,24.80
2022,04,04,06,47,15.60
2022,04,04,06,48,17.80
2022,04,04,06,49,19.20
2022,04,04,06,50,25.10
2022,04,04,06,51,22.70
2022,04,04,06,52,22.40
2022,04,04,06,53,16.60
2022,04,04,06,54,15.60
2022,04,04,06,55,21.00
2022,04,04,06,56,18.50
2022,04,04,06,57,16.00
2022,04,04,06,58,20.70
2022,04,04,06,59,17.70
2022,04,04,07,00,17.50
2022,04,04,07,01,18.70
2022,04,04,07,02,27.50
2022,04,04,07,03,25.20
2022,04,04,07,04,23.40
2022,04,04,07,05,23.30
2022,04,04,07,06,31.10
2022,04,04,07,07,31.60
2022,04,04,07,08,25.90
2022,04,04,07,09,25.80
2022,04,04,07,10,26.10
2022,04,04,07,11,32.00
2022,04,04,07,12,30.80
2022,04,04,07,13,26.00
2022,04,04,07,14,22.70
2022,04,04,07,15,22.40
2022,04,04,07,16,21.90
2022,04,04,07,17,25.00
2022,04,04,07,18,25.60
2022,04,04,07,19,20.30
2022,04,04,07,20,19.00
2022,04,04,07,21,21.90
2022,04,04,07,22,25.20
2022,04,04,07,23,29.40
2022,04,04,07,24,28.20
2022,04,04,07,25,28.00
2022,04,04,07,26,27.10
2022,04,04,07,27,28.80
2022,04,04,07,28,21.60
2022,04,04,07,29,22.80
2022,04,04,07,30,16.20
2022,04,04,07,31,21.50
2022,04,04,07,32,22.70
2022,04,04,07,33,21.80
2022,04,04,07,34,22.00
2022,04,04,07,35,17.50
2022,04,04,07,36,19.90
2022,04,04,07,37,29.40
2022,04,04,07,38,17.30
2022,04,04,07,39,20.70
2022,04,04,07,40,26.40
2022,04,04,07,41,17.60
2022,04,04,07,42,28.60
2022,04,04,07,43,22.50
2022,04,04,07,44,16.60
2022,04,04,07,45,16.10
2022,04,04,07,46,16.10
2022,04,04,07,47,16.10
2022,04,04,07,48,16.10
2022,04,04,07,49,16.30
2022,04,04,07,50,15.60
2022,04,04,07,51,28.50
2022,04,04,07,52,20.00
2022,04,04,07,53,18.70
2022,04,04,07,54,24.10
2022,04,04,07,55,28.30
2022,04,04,07,56,25.10
2022,04,04,07,57,25.60
2022,04,04,07,58,19.10
2022,04,04,07,59,23.10
2022,04,04,08,00,22.60
2022,04,04,08,01,19.80
2022,04,04,08,02,24.80
2022,04,04,08,03,21.20
2022,04,04,08,04,17.30
2022,04,04,08,05,28.50
2022,04,04,08,06,28.10
2022,04,04,08,07,36.90
2022,04,04,08,08,30.90
2022,04,04,08,09,31.50
2022,04,04,08,10,22.50
2022,04,04,08,11,27.20
2022,04,04,08,12,21.70
2022,04,04,08,13,25.40
2022,04,04,08,14,24.40
2022,04,04,08,15,23.20
2022,04,04,08,16,18.80
2022,04,04,08,17,19.70
2022,04,04,08,18,16.90
2022,04,04,08,19,23.50
2022,04,04,08,20,19.50
2022,04,04,08,21,27.20
2022,04,04,08,22,23.70
2022,04,04,08,23,23.80
2022,04,04,08,24,19.90
2022,04,04,08,25,18.10
2022,04,04,08,26,21.10
2022,04,04,08,27,24.80
2022,04,04,08,28,25.70
2022,04,04,08,29,23.90
2022,04,04,08,30,19.20
2022,04,04,08,31,30.00
2022,04,04,08,32,27.20
2022,04,04,08,33,24.80
2022,04,04,08,34,21.40
2022,04,04,08,35,32.40
2022,04,04,08,36,22.10
2022,04,04,08,37,25.50
2022,04,04,08,38,21.50
2022,04,04,08,39,19.60
2022,04,04,08,40,16.00
2022,04,04,08,41,20.60
2022,04,04,08,42,26.90
2022,04,04,08,43,25.00
2022,04,04,08,44,19.20
2022,04,04,08,45,25.90
2022,04,04,08,46,31.60
2022,04,04,08,47,26.70
2022,04,04,08,48,23.00
2022,04,04,08,49,27.40
2022,04,04,08,50,20.90
2022,04,04,08,51,25.30
2022,04,04,08,52,19.50
2022,04,04,08,53,18.00
2022,04,04,08,54,23.30
2022,04,04,08,55,26.40
2022,04,04,08,56,30.30
2022,04,04,08,57,22.80
2022,04,04,08,58,21.20
2022,04,04,08,59,31.30
2022,04,04,09,00,26.30
2022,04,04,09,01,29.20
2022,04,04,09,02,32.20
2022,04,04,09,03,22.70
2022,04,04,09,04,26.30
2022,04,04,09,05,34.30
2022,04,04,09,06,24.90
2022,04,04,09,07,33.70
2022,04,04,09,08,36.20
2022,04,04,09,09,34.90
2022,04,04,09,10,32.60
2022,04,04,09,11,35.60
2022,04,04,09,12,30.70
2022,04,04,09,13,34.00
2022,04,04,09,14,34.60
2022,04,04,09,15,43.00
2022,04,04,09,16,27.10
2022,04,04,09,17,35.00
2022,04,04,09,18,34.80
2022,04,04,09,19,45.90
2022,04,04,09,20,41.40
2022,04,04,09,21,32.30
2022,04,04,09,22,34.60
2022,04,04,09,23,27.30
2022,04,04,09,24,30.90
2022,04,04,09,25,31.00
2022,04,04,09,26,35.10
2022,04,04,09,27,24.10
2022,04,04,09,28,22.30
2022,04,04,09,29,22.50
2022,04,04,09,30,30.90
2022,04,04,09,31,29.70
2022,04,04,09,32,26.40
2022,04,04,09,33,27.40
2022,04,04,09,34,22.70
2022,04,04,09,35,21.90
2022,04,04,09,36,24.80
2022,04,04,09,37,27.50
2022,04,04,09,38,29.60
2022,04,04,09,39,21.40
2022,04,04,09,40,20.60
2022,04,04,09,41,24.80
2022,04,04,09,42,31.20
2022,04,04,09,43,35.20
2022,04,04,09,44,29.40
2022,04,04,09,45,30.40
2022,04,04,09,46,22.90
2022,04,04,09,47,21.90
2022,04,04,09,48,22.50
2022,04,04,09,49,26.10
2022,04,04,09,50,31.10
2022,04,04,09,51,27.40
2022,04,04,09,52,25.20
2022,04,04,09,53,22.20
2022,04,04,09,54,23.50
2022,04,04,09,55,20.80
2022,04,04,09,56,27.10
2022,04,04,09,57,20.40
2022,04,04,09,58,18.80
2022,04,04,09,59,20.00
2022,04,04,10,00,29.90
2022,04,04,10,01,24.10
2022,04,04,10,02,24.90
2022,04,04,10,03,20.00
2022,04,04,10,04,30.50
2022,04,04,10,05,27.00
2022,04,04,10,06,27.00
2022,04,04,10,07,28.70
2022,04,04,10,08,19.20
2022,04,04,10,09,20.50
2022,04,04,10,10,21.80
2022,04,04,10,11,13.80
2022,04,04,10,12,20.50
2022,04,04,10,13,19.10
2022,04,04,10,14,21.00
2022,04,04,10,15,24.80
2022,04,04,10,16,30.20
2022,04,04,10,17,34.10
2022,04,04,10,18,20.40
2022,04,04,10,19,26.40
2022,04,04,10,20,27.70
2022,04,04,10,21,25.40
2022,04,04,10,22,21.80
2022,04,04,10,23,19.70
2022,04,04,10,24,21.50
2022,04,04,10,25,29.30
2022,04,04,10,26,18.20
2022,04,04,10,27,25.50
2022,04,04,10,28,26.20
2022,04,04,10,29,26.20
2022,04,04,10,30,28.30
2022,04,04,10,31,27.30
2022,04,04,10,32,27.40
2022,04,04,10,33,29.40
2022,04,04,10,34,22.70
2022,04,04,10,35,34.40
2022,04,04,10,36,36.90
2022,04,04,10,37,38.90
2022,04,04,10,38,32.30
2022,04,04,10,39,33.10
2022,04,04,10,40,30.10
2022,04,04,10,41,38.60
2022,04,04,10,42,33.00
2022,04,04,10,43,33.20
2022,04,04,10,44,28.10
2022,04,04,10,45,33.90
2022,04,04,10,46,33.10
2022,04,04,10,47,28.90
2022,04,04,10,48,27.40
2022,04,04,10,49,22.30
2022,04,04,10,50,29.40
2022,04,04,10,51,22.30
2022,04,04,10,52,30.70
2022,04,04,10,53,22.00
2022,04,04,10,54,21.50
2022,04,04,10,55,23.50
2022,04,04,10,56,18.50
2022,04,04,10,57,21.40
2022,04,04,10,58,21.50
2022,04,04,10,59,25.30
2022,04,04,11,00,23.60
2022,04,04,11,01,28.10
2022,04,04,11,02,28.20
2022,04,04,11,03,30.90
2022,04,04,11,04,28.30
2022,04,04,11,05,36.20
2022,04,04,11,06,33.30
2022,04,04,11,07,31.80
2022,04,04,11,08,37.40
2022,04,04,11,09,34.50
2022,04,04,11,10,29.10
2022,04,04,11,11,39.00
2022,04,04,11,12,28.70
2022,04,04,11,13,42.20
2022,04,04,11,14,36.00
2022,04,04,11,15,33.50
2022,04,04,11,16,32.00
2022,04,04,11,17,40.50
2022,04,04,11,18,39.60
2022,04,04,11,19,35.10
2022,04,04,11,20,42.70
2022,04,04,11,21,33.60
2022,04,04,11,22,34.30
2022,04,04,11,23,40.80
2022,04,04,11,24,31.20
2022,04,04,11,25,38.80
2022,04,04,11,26,42.20
2022,04,04,11,27,33.00
2022,04,04,11,28,27.50
2022,04,04,11,29,38.10
2022,04,04,11,30,32.80
2022,04,04,11,31,32.30
2022,04,04,11,32,32.20
2022,04,04,11,33,31.40
2022,04,04,11,34,31.40
2022,04,04,11,35,40.40
2022,04,04,11,36,29.80
2022,04,04,11,37,35.20
2022,04,04,11,38,31.00
2022,04,04,11,39,31.90
2022,04,04,11,40,29.20
2022,04,04,11,41,34.30
2022,04,04,11,42,34.20
2022,04,04,11,43,40.40
2022,04,04,11,44,35.00
2022,04,04,11,45,25.10
2022,04,04,11,46,23.00
2022,04,04,11,47,36.30
2022,04,04,11,48,37.90
2022,04,04,11,49,37.50
2022,04,04,11,50,31.90
2022,04,04,11,51,34.80
2022,04,04,11,52,30.60
2022,04,04,11,53,31.10
2022,04,04,11,54,30.40
2022,04,04,11,55,25.40
2022,04,04,11,56,25.70
2022,04,04,11,57,28.10
2022,04,04,11,58,25.00
2022,04,04,11,59,25.70
2022,04,04,12,00,32.00
2022,04,04,12,01,32.20
2022,04,04,12,02,37.80
2022,04,04,12,03,24.30
2022,04,04,12,04,30.30
2022,04,04,12,05,34.60
2022,04,04,12,06,44.20
2022,04,04,12,07,33.60
2022,04,04,12,08,31.50
2022,04,04,12,09,32.20
2022,04,04,12,10,33.60
2022,04,04,12,11,31.20
2022,04,04,12,12,23.60
2022,04,04,12,13,28.60
2022,04,04,12,14,27.50
2022,04,04,12,15,33.10
2022,04,04,12,16,23.00
2022,04,04,12,17,21.10
2022,04,04,12,18,18.10
2022,04,04,12,19,15.70
2022,04,04,12,20,20.00
2022,04,04,12,21,14.40
2022,04,04,12,22,12.10
2022,04,04,12,23,13.30
2022,04,04,12,24,17.00
2022,04,04,12,25,19.90
2022,04,04,12,26,19.00
2022,04,04,12,27,22.30
2022,04,04,12,28,17.80
2022,04,04,12,29,19.50
2022,04,04,12,30,22.00
2022,04,04,12,31,22.10
2022,04,04,12,32,24.70
2022,04,04,12,33,20.70
2022,04,04,12,34,20.50
2022,04,04,12,35,16.20
2022,04,04,12,36,21.70
2022,04,04,12,37,13.80
2022,04,04,12,38,14.60
2022,04,04,12,39,18.30
2022,04,04,12,40,18.80
2022,04,04,12,41,14.20
2022,04,04,12,42,15.80
2022,04,04,12,43,21.90
2022,04,04,12,44,16.60
2022,04,04,12,45,18.50
2022,04,04,12,46,27.40
2022,04,04,12,47,26.90
2022,04,04,12,48,30.40
2022,04,04,12,49,31.20
2022,04,04,12,50,25.60
2022,04,04,12,51,22.30
2022,04,04,12,52,24.20
2022,04,04,12,53,26.30
2022,04,04,12,54,22.00
2022,04,04,12,55,24.90
2022,04,04,12,56,22.10
2022,04,04,12,57,26.10
2022,04,04,12,58,23.80
2022,04,04,12,59,26.30
2022,04,04,13,00,28.00
2022,04,04,13,01,22.20
2022,04,04,13,02,24.30
2022,04,04,13,03,27.00
2022,04,04,13,04,27.20
2022,04,04,13,05,19.20
2022,04,04,13,06,17.70
2022,04,04,13,07,17.70
2022,04,04,13,08,17.70
2022,04,04,13,09,17.70
2022,04,04,13,10,17.70
2022,04,04,13,11,19.50
2022,04,04,13,12,25.50
2022,04,04,13,13,23.90
2022,04,04,13,14,25.30
2022,04,04,13,15,18.30
2022,04,04,13,16,25.20
2022,04,04,13,17,28.90
2022,04,04,13,18,23.30
2022,04,04,13,19,18.70
2022,04,04,13,20,22.60
2022,04,04,13,21,22.40
2022,04,04,13,22,19.50
2022,04,04,13,23,15.00
2022,04,04,13,24,18.30
2022,04,04,13,25,16.70
2022,04,04,13,26,19.30
2022,04,04,13,27,26.40
2022,04,04,13,28,17.50
2022,04,04,13,29,17.70
2022,04,04,13,30,15.60
2022,04,04,13,31,18.00
2022,04,04,13,32,23.70
2022,04,04,13,33,16.00
2022,04,04,13,34,12.10
2022,04,04,13,35,21.40
2022,04,04,13,36,16.40
2022,04,04,13,37,18.50
2022,04,04,13,38,17.00
2022,04,04,13,39,16.60
2022,04,04,13,40,17.40
2022,04,04,13,41,20.00
2022,04,04,13,42,19.40
2022,04,04,13,43,18.80
2022,04,04,13,44,23.60
2022,04,04,13,45,22.10
2022,04,04,13,46,21.20
2022,04,04,13,47,24.10
2022,04,04,13,48,30.60
2022,04,04,13,49,28.60
2022,04,04,13,50,25.70
2022,04,04,13,51,32.30
2022,04,04,13,52,29.70
2022,04,04,13,53,23.30
2022,04,04,13,54,20.20
2022,04,04,13,55,21.80
2022,04,04,13,56,24.10
2022,04,04,13,57,20.20
2022,04,04,13,58,25.60
2022,04,04,13,59,26.80
2022,04,04,14,00,22.50
2022,04,04,14,01,29.10
2022,04,04,14,02,28.60
2022,04,04,14,03,31.40
2022,04,04,14,04,33.90
2022,04,04,14,05,40.20
2022,04,04,14,06,38.60
2022,04,04,14,07,36.40
2022,04,04,14,08,38.40
2022,04,04,14,09,26.70
2022,04,04,14,10,28.30
2022,04,04,14,11,38.50
2022,04,04,14,12,25.30
2022,04,04,14,13,26.60
2022,04,04,14,14,20.30
2022,04,04,14,15,22.10
2022,04,04,14,16,17.10
2022,04,04,14,17,19.50
2022,04,04,14,18,21.40
2022,04,04,14,19,20.40
2022,04,04,14,20,21.20
2022,04,04,14,21,21.20
2022,04,04,14,22,31.80
2022,04,04,14,23,37.70
2022,04,04,14,24,26.50
2022,04,04,14,25,36.40
2022,04,04,14,26,31.50
2022,04,04,14,27,25.70
2022,04,04,14,28,28.60
2022,04,04,14,29,26.70
2022,04,04,14,30,20.20
2022,04,04,14,31,30.60
2022,04,04,14,32,30.60
2022,04,04,14,33,21.30
2022,04,04,14,34,26.40
2022,04,04,14,35,25.10
2022,04,04,14,36,17.70
2022,04,04,14,37,25.40
2022,04,04,14,38,27.70
2022,04,04,14,39,24.40
2022,04,04,14,40,23.00
2022,04,04,14,41,32.60
2022,04,04,14,42,23.20
2022,04,04,14,43,21.80
2022,04,04,14,44,26.50
2022,04,04,14,45,21.70
2022,04,04,14,46,31.30
2022,04,04,14,47,26.90
2022,04,04,14,48,22.50
2022,04,04,14,49,27.80
2022,04,04,14,50,22.60
2022,04,04,14,51,20.70
2022,04,04,14,52,24.70
2022,04,04,14,53,27.80
2022,04,04,14,54,27.90
2022,04,04,14,55,29.10
2022,04,04,14,56,29.10
2022,04,04,14,57,28.70
2022,04,04,14,58,30.30
2022,04,04,14,59,38.30
2022,04,04,15,00,27.70
2022,04,04,15,01,29.50
2022,04,04,15,02,30.50
2022,04,04,15,03,32.80
2022,04,04,15,04,28.60
2022,04,04,15,05,22.80
2022,04,04,15,06,24.00
2022,04,04,15,07,28.20
2022,04,04,15,08,25.20
2022,04,04,15,09,26.10
2022,04,04,15,10,29.00
2022,04,04,15,11,33.70
2022,04,04,15,12,26.20
2022,04,04,15,13,26.40
2022,04,04,15,14,24.40
2022,04,04,15,15,27.30
2022,04,04,15,16,25.10
2022,04,04,15,17,33.20
2022,04,04,15,18,29.50
2022,04,04,15,19,30.70
2022,04,04,15,20,32.50
2022,04,04,15,21,32.80
2022,04,04,15,22,29.90
2022,04,04,15,23,41.80
2022,04,04,15,24,51.00
2022,04,04,15,25,46.20
2022,04,04,15,26,32.30
2022,04,04,15,27,33.30
2022,04,04,15,28,40.40
2022,04,04,15,29,34.60
2022,04,04,15,30,36.20
2022,04,04,15,31,43.10
2022,04,04,15,32,26.60
2022,04,04,15,33,40.40
2022,04,04,15,34,27.00
2022,04,04,15,35,29.00
2022,04,04,15,36,26.80
2022,04,04,15,37,28.60
2022,04,04,15,38,32.10
2022,04,04,15,39,34.10
2022,04,04,15,40,31.30
2022,04,04,15,41,20.00
2022,04,04,15,42,30.20
2022,04,04,15,43,25.90
2022,04,04,15,44,28.80
2022,04,04,15,45,28.40
2022,04,04,15,46,26.60
2022,04,04,15,47,23.50
2022,04,04,15,48,25.10
2022,04,04,15,49,25.30
2022,04,04,15,50,28.30
2022,04,04,15,51,25.40
2022,04,04,15,52,29.50
2022,04,04,15,53,33.90
2022,04,04,15,54,33.30
2022,04,04,15,55,26.70
2022,04,04,15,56,25.00
2022,04,04,15,57,29.60
2022,04,04,15,58,27.10
2022,04,04,15,59,17.30
2022,04,04,16,00,20.40
2022,04,04,16,01,22.90
2022,04,04,16,02,25.80
2022,04,04,16,03,23.20
2022,04,04,16,04,31.10
2022,04,04,16,05,35.70
2022,04,04,16,06,40.70
2022,04,04,16,07,42.00
2022,04,04,16,08,34.60
2022,04,04,16,09,29.10
2022,04,04,16,10,26.00
2022,04,04,16,11,21.60
2022,04,04,16,12,33.50
2022,04,04,16,13,30.30
2022,04,04,16,14,28.40
2022,04,04,16,15,27.00
2022,04,04,16,16,29.70
2022,04,04,16,17,31.70
2022,04,04,16,18,27.00
2022,04,04,16,19,27.50
2022,04,04,16,20,24.90
2022,04,04,16,21,31.10
2022,04,04,16,22,32.60
2022,04,04,16,23,32.40
2022,04,04,16,24,28.90
2022,04,04,16,25,24.10
2022,04,04,16,26,35.30
2022,04,04,16,27,31.80
2022,04,04,16,28,40.90
2022,04,04,16,29,30.40
2022,04,04,16,30,30.60
2022,04,04,16,31,34.60
2022,04,04,16,32,31.10
2022,04,04,16,33,38.50
2022,04,04,16,34,33.00
2022,04,04,16,35,31.70
2022,04,04,16,36,45.10
2022,04,04,16,37,30.80
2022,04,04,16,38,38.80
2022,04,04,16,39,30.10
2022,04,04,16,40,34.80
2022,04,04,16,41,29.90
2022,04,04,16,42,25.30
2022,04,04,16,43,36.10
2022,04,04,16,44,33.60
2022,04,04,16,45,28.20
2022,04,04,16,46,27.30
2022,04,04,16,47,37.00
2022,04,04,16,48,27.30
2022,04,04,16,49,25.60
2022,04,04,16,50,22.00
2022,04,04,16,51,32.50
2022,04,04,16,52,35.40
2022,04,04,16,53,28.40
2022,04,04,16,54,33.40
2022,04,04,16,55,37.60
2022,04,04,16,56,33.00
2022,04,04,16,57,36.10
2022,04,04,16,58,44.80
2022,04,04,16,59,46.10
2022,04,04,17,00,45.10
2022,04,04,17,01,41.20
2022,04,04,17,02,39.40
2022,04,04,17,03,41.50
2022,04,04,17,04,38.60
2022,04,04,17,05,36.20
2022,04,04,17,06,27.70
2022,04,04,17,07,33.40
2022,04,04,17,08,30.90
2022,04,04,17,09,35.20
2022,04,04,17,10,25.20
2022,04,04,17,11,33.60
2022,04,04,17,12,35.80
2022,04,04,17,13,34.50
2022,04,04,17,14,33.90
2022,04,04,17,15,29.10
2022,04,04,17,16,32.50
2022,04,04,17,17,25.70
2022,04,04,17,18,31.10
2022,04,04,17,19,32.60
2022,04,04,17,20,31.20
2022,04,04,17,21,39.20